Weather History for Nampa, ID

Change the Weather History Date:

Wednesday, November 20, 2013

  Actual Average (KBOI) Record (KBOI)
Temperature  
Mean Temperature 39 °F 38 °F  
Max Temperature 46 °F 46 °F 67 °F (1966)
Min Temperature 32 °F 31 °F 11 °F (1977)
Degree Days  
Heating Degree Days 26 27  
Month to date heating degree days 457  
Since 1 July heating degree days 963  
Cooling Degree Days 0 0  
Month to date cooling degree days 0  
Year to date cooling degree days 942  
Moisture  
Dew Point 31 °F    
Average Humidity 72    
Maximum Humidity 100    
Minimum Humidity 39    
Precipitation  
Precipitation 0.24 in 0.04 in 0.84 in (1921)
Month to date precipitation 0.86  
Year to date precipitation 9.69  
Snow  
Snow 0.00 in 0.10 in 1.90 in (1961)
Month to date snowfall 1.2  
Since 1 July snowfall 1.3  
Snow Depth -    
Sea Level Pressure  
Sea Level Pressure 29.92 in    
Wind  
Wind Speed 10 mph (NW)    
Max Wind Speed 21 mph    
Max Gust Speed 30 mph    
Visibility 9 miles    
Events      
T = Trace of Precipitation, MM = Missing Value Source: NWS Daily Summary

Daily Weather History Graph

Daily Weather History Graph

Search for Another Location

Airport:

Trip Planner

Search our weather history database for the weather conditions in past years. The results will help you decide how hot, cold, wet, or windy it might be!

Date:

Astronomy

Nov. 20, 2013 Rise Set
Actual Time 7:46 AM MST 5:16 PM MST
Civil Twilight 7:15 AM MST 5:47 PM MST
Nautical Twilight 6:40 AM MST 6:22 PM MST
Astronomical Twilight 6:06 AM MST 6:56 PM MST
Moon 8:03 PM MST (11/20) 10:15 AM MST (11/20)
Length of Visible Light 10h 32m
Length of Day
9h 29m
Waning Gibbous, 91% of the Moon is Illuminated
Nov 20
Waning Gibbous
Nov 25
Last Quarter
Dec 2
New
Dec 9
First Quarter
Dec 17
Full

Hourly Weather History & Observations

Time (MST) Temp. Windchill Dew Point Humidity Pressure Visibility Wind Dir Wind Speed Gust Speed Precip Events Conditions
12:15 AM 46.4 °F 43.5 °F 46.4 °F 100% 29.82 in 10.0 mi SE 5.8 mph - N/A   Overcast
12:35 AM 46.4 °F 42.9 °F 46.4 °F 100% 29.81 in 8.0 mi ESE 6.9 mph - N/A   Overcast
12:55 AM 46.4 °F 42.9 °F 46.4 °F 100% 29.81 in 7.0 mi ESE 6.9 mph - 0.01 in   Overcast
1:15 AM 46.4 °F 41.9 °F 46.4 °F 100% 29.81 in 8.0 mi ESE 9.2 mph - 0.01 in   Overcast
1:35 AM 46.4 °F 41.9 °F 46.4 °F 100% 29.80 in 9.0 mi ESE 9.2 mph - 0.01 in   Overcast
1:55 AM 46.4 °F 41.9 °F 46.4 °F 100% 29.79 in 10.0 mi ESE 9.2 mph - 0.01 in   Overcast
2:15 AM 46.4 °F 42.9 °F 46.4 °F 100% 29.79 in 10.0 mi ESE 6.9 mph - N/A   Overcast
2:35 AM 46.4 °F 42.9 °F 46.4 °F 100% 29.79 in 10.0 mi ESE 6.9 mph - N/A   Overcast
2:55 AM 46.4 °F 42.9 °F 46.4 °F 100% 29.79 in 8.0 mi ESE 6.9 mph - N/A   Overcast
3:15 AM 46.4 °F 44.3 °F 46.4 °F 100% 29.79 in 6.0 mi SE 4.6 mph - 0.02 in   Overcast
3:35 AM 46.4 °F 44.3 °F 46.4 °F 100% 29.80 in 6.0 mi SSE 4.6 mph - 0.03 in   Overcast
3:55 AM 46.4 °F 45.2 °F 46.4 °F 100% 29.80 in 6.0 mi SW 3.5 mph - 0.05 in   Overcast
4:15 AM 46.4 °F 45.2 °F 46.4 °F 100% 29.79 in 7.0 mi ESE 3.5 mph - 0.02 in   Overcast
4:35 AM 46.4 °F 45.2 °F 46.4 °F 100% 29.79 in 7.0 mi SE 3.5 mph - 0.04 in   Overcast
4:55 AM 44.6 °F - 44.6 °F 100% 29.79 in 5.0 mi Calm Calm - 0.07 in   Overcast
5:15 AM 44.6 °F 41.4 °F 44.6 °F 100% 29.79 in 5.0 mi ESE 5.8 mph - 0.02 in   Overcast
5:35 AM 44.6 °F 41.4 °F 44.6 °F 100% 29.79 in 6.0 mi SE 5.8 mph - 0.04 in   Overcast
5:55 AM 44.6 °F 42.2 °F 44.6 °F 100% 29.79 in 5.0 mi SE 4.6 mph - 0.07 in   Overcast
6:15 AM 44.6 °F 43.1 °F 44.6 °F 100% 29.79 in 5.0 mi SSE 3.5 mph - 0.01 in   Overcast
6:35 AM 44.6 °F 43.1 °F 44.6 °F 100% 29.80 in 7.0 mi SSE 3.5 mph - 0.01 in   Overcast
6:55 AM 44.6 °F - 44.6 °F 100% 29.80 in 5.0 mi Calm Calm - 0.01 in   Overcast
7:15 AM 44.6 °F - 44.6 °F 100% 29.81 in 5.0 mi Calm Calm - 0.01 in   Mostly Cloudy
7:35 AM 44.6 °F 37.4 °F 44.6 °F 100% 29.82 in 6.0 mi NW 16.1 mph 21.9 mph 0.02 in   Mostly Cloudy
7:55 AM 42.8 °F 36.2 °F 42.8 °F 100% 29.84 in 7.0 mi NW 12.7 mph - 0.02 in   Overcast
8:15 AM 41.0 °F 33.5 °F 41.0 °F 100% 29.85 in 8.0 mi NNW 13.8 mph 18.4 mph N/A   Mostly Cloudy
8:35 AM 41.0 °F 33.1 °F 39.2 °F 93% 29.87 in 10.0 mi NW 15.0 mph 19.6 mph N/A   Overcast
8:55 AM 39.2 °F 30.8 °F 35.6 °F 87% 29.88 in 8.0 mi NW 15.0 mph 20.7 mph N/A   Overcast
9:15 AM 39.2 °F 30.8 °F 33.8 °F 81% 29.90 in 10.0 mi NW 15.0 mph 21.9 mph N/A   Mostly Cloudy
9:35 AM 39.2 °F 31.6 °F 32.0 °F 75% 29.92 in 10.0 mi NW 12.7 mph 18.4 mph N/A   Overcast
9:55 AM 39.2 °F 31.2 °F 32.0 °F 75% 29.93 in 10.0 mi WNW 13.8 mph 19.6 mph N/A   Overcast
10:15 AM 39.2 °F 31.2 °F 32.0 °F 75% 29.94 in 10.0 mi NW 13.8 mph 19.6 mph N/A   Mostly Cloudy
10:35 AM 39.2 °F 30.5 °F 30.2 °F 70% 29.94 in 10.0 mi WNW 16.1 mph 20.7 mph N/A   Scattered Clouds
10:55 AM 39.2 °F 31.2 °F 30.2 °F 70% 29.95 in 10.0 mi WNW 13.8 mph 23.0 mph N/A   Clear
11:15 AM 39.2 °F 30.8 °F 30.2 °F 70% 29.96 in 10.0 mi NW 15.0 mph 21.9 mph N/A   Clear
11:35 AM 41.0 °F 32.2 °F 32.0 °F 70% 29.95 in 10.0 mi WNW 18.4 mph 24.2 mph N/A   Mostly Cloudy
11:55 AM 41.0 °F 32.8 °F 32.0 °F 70% 29.96 in 10.0 mi WNW 16.1 mph 21.9 mph N/A   Scattered Clouds
12:15 PM 41.0 °F 33.1 °F 32.0 °F 70% 29.95 in 10.0 mi NW 15.0 mph 24.2 mph N/A   Clear
12:35 PM 41.0 °F 32.5 °F 32.0 °F 70% 29.94 in 10.0 mi NW 17.3 mph 25.3 mph N/A   Clear
12:55 PM 41.0 °F 32.8 °F 32.0 °F 70% 29.94 in 10.0 mi NW 16.1 mph 23.0 mph N/A   Clear
1:15 PM 41.0 °F 32.2 °F 32.0 °F 70% 29.94 in 10.0 mi WNW 18.4 mph 24.2 mph N/A   Clear
1:35 PM 41.0 °F 32.8 °F 30.2 °F 65% 29.94 in 10.0 mi NW 16.1 mph 23.0 mph N/A   Clear
1:55 PM 42.8 °F 34.5 °F 28.4 °F 57% 29.94 in 10.0 mi WNW 18.4 mph 24.2 mph N/A   Clear
2:15 PM 44.6 °F 36.6 °F 28.4 °F 53% 29.94 in 10.0 mi NW 19.6 mph 28.8 mph N/A   Clear
2:35 PM 42.8 °F 34.8 °F 26.6 °F 53% 29.94 in 10.0 mi WNW 17.3 mph 25.3 mph N/A   Clear
2:55 PM 42.8 °F 34.0 °F 26.6 °F 53% 29.94 in 10.0 mi WNW 20.7 mph 29.9 mph N/A   Clear
3:15 PM 44.6 °F 37.2 °F 23.0 °F 43% 29.95 in 10.0 mi NW 17.3 mph 24.2 mph N/A   Clear
3:35 PM 42.8 °F 35.1 °F 21.2 °F 42% 29.96 in 10.0 mi NW 16.1 mph 26.5 mph N/A   Clear
3:55 PM 42.8 °F 35.1 °F 19.4 °F 39% 29.97 in 10.0 mi NW 16.1 mph 24.2 mph N/A   Clear
4:15 PM 41.0 °F 33.1 °F 19.4 °F 42% 29.97 in 10.0 mi NW 15.0 mph 21.9 mph N/A   Clear
4:35 PM 39.2 °F 30.8 °F 23.0 °F 52% 29.98 in 10.0 mi NW 15.0 mph 27.6 mph N/A   Clear
4:55 PM 39.2 °F 30.8 °F 23.0 °F 52% 29.99 in 10.0 mi WNW 15.0 mph 24.2 mph N/A   Clear
5:15 PM 37.4 °F 27.5 °F 23.0 °F 56% 29.99 in 10.0 mi WNW 18.4 mph 21.9 mph N/A   Clear
5:35 PM 37.4 °F 28.2 °F 21.2 °F 52% 30.00 in 10.0 mi NW 16.1 mph 23.0 mph N/A   Clear
5:55 PM 37.4 °F 28.2 °F 19.4 °F 48% 30.01 in 10.0 mi NW 16.1 mph 19.6 mph N/A   Clear
6:15 PM 37.4 °F 28.2 °F 19.4 °F 48% 30.02 in 10.0 mi NW 16.1 mph 24.2 mph N/A   Scattered Clouds
6:35 PM 37.4 °F 27.5 °F 17.6 °F 45% 30.02 in 10.0 mi NW 18.4 mph 26.5 mph N/A   Overcast
6:55 PM 35.6 °F 25.9 °F 17.6 °F 48% 30.03 in 10.0 mi WNW 16.1 mph 20.7 mph N/A   Overcast
7:15 PM 35.6 °F 25.9 °F 19.4 °F 52% 30.03 in 10.0 mi WNW 16.1 mph - N/A   Mostly Cloudy
7:35 PM 35.6 °F 25.9 °F 17.6 °F 48% 30.03 in 10.0 mi WNW 16.1 mph - N/A   Scattered Clouds
7:55 PM 33.8 °F 23.5 °F 17.6 °F 52% 30.03 in 10.0 mi WNW 16.1 mph 24.2 mph N/A   Mostly Cloudy
8:15 PM 33.8 °F 23.5 °F 17.6 °F 52% 30.04 in 10.0 mi NW 16.1 mph 23.0 mph N/A   Partly Cloudy
8:35 PM 33.8 °F 23.5 °F 17.6 °F 52% 30.04 in 10.0 mi NW 16.1 mph 24.2 mph N/A   Clear
8:55 PM 33.8 °F 23.9 °F 15.8 °F 48% 30.05 in 10.0 mi NW 15.0 mph 25.3 mph N/A   Partly Cloudy
9:15 PM 32.0 °F 20.8 °F 15.8 °F 51% 30.05 in 10.0 mi WNW 17.3 mph 23.0 mph N/A   Scattered Clouds
9:35 PM 32.0 °F 19.8 °F 14.0 °F 48% 30.05 in 10.0 mi NW 20.7 mph 25.3 mph N/A   Mostly Cloudy
9:55 PM 32.0 °F 21.6 °F 14.0 °F 48% 30.06 in 10.0 mi NW 15.0 mph 27.6 mph N/A   Scattered Clouds
10:15 PM 32.0 °F 20.8 °F 14.0 °F 48% 30.07 in 10.0 mi WNW 17.3 mph 20.7 mph N/A   Clear
10:35 PM 32.0 °F 21.2 °F 14.0 °F 48% 30.08 in 10.0 mi WNW 16.1 mph - N/A   Partly Cloudy
10:55 PM 32.0 °F 21.6 °F 14.0 °F 48% 30.08 in 10.0 mi WNW 15.0 mph - N/A   Partly Cloudy
11:15 PM 32.0 °F 20.8 °F 14.0 °F 48% 30.08 in 10.0 mi WNW 17.3 mph 24.2 mph N/A   Scattered Clouds
11:35 PM 32.0 °F 20.8 °F 10.4 °F 41% 30.09 in 10.0 mi WNW 17.3 mph 26.5 mph N/A   Scattered Clouds
11:55 PM 32.0 °F 20.8 °F 10.4 °F 41% 30.09 in 10.0 mi WNW 17.3 mph 23.0 mph N/A   Scattered Clouds